WSSS

Singapore Changi Airport

Airport
ICAO code
WSSS
IATA Code
SIN
Summary
ICAO Region
APAC
ICAO Territory
Location

Changi, East Region

Serving
Singapore
Elevation
22 ft
Coordinates
1° 21' 24" N , 103° 59' 21" E
KCC
Airport LOS
Parallel Runway Operation
Metar
WSSS 230430Z 13007KT 9999 FEW018 FEW020TCU BKN270 29/24 Q1010 NOSIG

The only international airport in Singapore.

Climatology

Tropical Rainforest climate (Köppen climate classification Af) - almost no distinct seasons, average daily temperature around 27°C throughout the year. Extensive cloud cover and heavy rainfall prevent temperatures from rising much over 33°C. The diurnal temperature change is between 2°C and 5°C which is greater than the annual temperature range of 2°C. Rainfall is heavy and is usually convectional and in the afternoon.

SKYbrary Partners:

Safety knowledge contributed by: